Regional Weather Roundup
Issued by NWS Boston, MA

Home | Current Version | Previous Version | Text Only | Print | Product List | Glossary On
Versions: 1 2 3 4 5 6 7 8 9 10 11 12 13 14 15 16 17 18 19 20 21 22 23 24 25 26 27 28 29 30 31 32 33 34 35 36 37 38 39 40 41 42 43 44 45 46 47 48 49
000
ASUS41 KBOX 220210
RWRBOX

REGIONAL WEATHER ROUNDUP
NATIONAL WEATHER SERVICE TAUNTON MA
1000 PM EDT THU AUG 21 2014

NOTE:  "FAIR" INDICATES FEW OR NO CLOUDS BELOW 12,000 FEET WITH NO
SIGNIFICANT WEATHER AND/OR OBSTRUCTIONS TO VISIBILITY.  THE FOLLOWING
OBSERVATION LOCATIONS DO NOT REPORT PRESENT WEATHER...PROVINCETOWN...
SMITHFIELD...BLOCK ISLAND...KEENE...AND OXFORD.

MAZALL-220300-
EASTERN MASSACHUSETTS

CITY           SKY/WX    TMP DP  RH WIND       PRES   REMARKS
BOSTON         MOCLDY    67  64  90 E8        30.09R
BEVERLY        CLOUDY    65  62  90 NE5       30.09R
LAWRENCE       CLOUDY    65  61  87 NE6       30.11S
BEDFORD        CLOUDY    66  63  90 E6        30.07S
BLUE HILL        N/A     65  62  90 E7        30.09S
NORWOOD        CLOUDY    68  61  78 E5        30.08S
MARSHFIELD     CLEAR     66  64  94 CALM      30.10S
PLYMOUTH       CLEAR     63  59  87 CALM      30.09S
TAUNTON        MOCLDY    67  62  84 NE5       30.07S
NEW BEDFORD    CLEAR     63  61  93 NE6       30.06S
$$

MAZALL-220300-
CAPE COD AND THE ISLANDS

CITY           SKY/WX    TMP DP  RH WIND       PRES   REMARKS
FALMOUTH       CLEAR     63  61  94 NE6       30.07F
HYANNIS        CLEAR     63  59  87 CALM      30.06S
CHATHAM        CLEAR     67  61  81 NE3       30.08S
PROVINCETOWN   PTCLDY    61  55  82 MISG      30.08F
NANTUCKET      MOCLDY    60  57  89 NE6       30.06S
MARTHAS VNYRD  CLEAR     56  54  93 CALM      30.06F
$$

MAZALL-220300-
CENTRAL AND WESTERN MASSACHUSETTS

CITY           SKY/WX    TMP DP  RH WIND       PRES   REMARKS
WORCESTER      LGT RAIN  62  60  93 NE5       30.10S FOG
FITCHBURG      CLOUDY    61  56  83 CALM      30.11S
ORANGE         CLOUDY    63  58  83 N5        30.09S
SPRINGFIELD    CLOUDY    66  63  88 E6        30.06R
WESTFIELD      CLOUDY    69  64  84 N3        30.05S
NORTH ADAMS    CLOUDY    66  59  78 E9        30.05S
PITTSFIELD     MOCLDY    64  61  90 E10       30.06R
$$

RIZALL-220300-
RHODE ISLAND

CITY           SKY/WX    TMP DP  RH WIND       PRES   REMARKS
PROVIDENCE     CLOUDY    69  62  78 SW5       30.08R
NEWPORT        CLEAR     65  60  84 CALM      30.07S
BLOCK ISLAND   MOCLDY    64  61  88 CALM      30.07S
SMITHFIELD     CLOUDY    66  61  82 CALM      30.08S
WESTERLY       CLOUDY    69  62  78 CALM      30.08S
$$

CTZALL-220300-
CONNECTICUT

CITY           SKY/WX    TMP DP  RH WIND       PRES   REMARKS
BRADLEY INTL   CLOUDY    70  65  84 SE9       30.04S
HARTFORD       CLOUDY    70  62  76 SE7       30.04F
BRIDGEPORT     CLOUDY    71  64  78 SE9       30.04F
DANBURY        LGT RAIN  67  64  90 SE7       30.05F
GROTON         CLOUDY    68  64  87 E3        30.06S
NEW HAVEN      CLOUDY    72  63  73 S9        30.05F
CHESTER        CLOUDY    66  63  88 SE3       30.08R
MERIDEN        CLOUDY    70  62  76 SE7       30.05S
WILLIMANTIC    CLOUDY    69  61  75 SE3       30.07S
OXFORD         CLOUDY    68  63  83 SE5       30.08S
$$

MEZ002-015-021-024-NHZ003-005-008-011-012-014-VTZ005-008-220300-
NORTHERN NEW ENGLAND

CITY           SKY/WX    TMP DP  RH WIND       PRES   REMARKS
PORTLAND ME    PTCLDY    60  57  89 E3        30.12R
BANGOR ME      CLOUDY    66  57  72 SE5       30.14R
CONCORD NH     CLOUDY    57  55  93 N5        30.11F
MANCHESTER NH  CLOUDY    59  56  89 NW6       30.09R
NASHUA NH      LGT RAIN  60  57  89 CALM      30.11S
PORTSMOUTH NH  LGT RAIN  64  62  93 N5        30.10R
JAFFREY NH     LGT RAIN  57  55  93 CALM      30.12S FOG
KEENE NH       CLOUDY    59  48  67 NE5       30.11R
BURLINGTON VT  CLOUDY    65  58  78 S6        30.06S
MT. WASHINGTON LGT RAIN  45  39  81 SE22G28     N/A
$$

NYZ052-076-220300-
EASTERN NEW YORK

CITY           SKY/WX    TMP DP  RH WIND       PRES   REMARKS
ALBANY         CLOUDY    72  63  73 S5        30.02R
NEW YORK CITY  CLOUDY    73  64  73 SE10      30.03S
$$

ANZALL-220300-
MARINE OBSERVATIONS

STATION/POSITION TIME  TEMP    WIND        PRES    VSBY  WAVE
                       AIR SEA DIR/SP/G                  HT/PER
                 (UTC) (F)     (DEG/KT/KT) (MB)    (MI)  (FT/S)
BOSTON BUOY      0150   67 67   70/  8/ 10 1018.5F         1/ 6
BUZZARDS BAY     0200           90/ 10/ 11 1018.7S
NANTUCKET SOUND  0150   68 71   50/ 10/ 12 1017.8R         1/ 6
MASS BAY-STELLWA 0104   67 67   70/  8/ 10   N/A    1 7/8  2/ 6
ISLE OF SHOALS   0200   65      20/  6/  7 1018.8F
S OF BLOCK IS    0108      69                N/A           3/ 6
$$

......................KEY.........................
  SKY/WX - SKY CONDITION/PRESENT WEATHER
  TMP    - TEMPERATURE IN FAHRENHEIT
  DWPT   - DEWPOINT IN FAHRENHEIT
  RH     - RELATIVE HUMIDITY IN PERCENT
  WIND   - DIRECTION AND SPEED IN MPH
  PRES   - MEAN SEA LEVEL PRESSURE IN INCHES OF HG
  WCI    - WIND CHILL INDEX
  VSB    - VISIBILITY IN MILES
  HX     - HEAT INDEX
  TC     - TEMPERATURE IN CELSIUS
  VRB    - VARIABLE WIND DIRECTION
  N/A    - NOT AVAILABLE


USA.gov is the U.S. government's official web portal to all federal, state and local government web resources and services.